Wilmington, DE

9:45 AM EST on January 16, 2018 (GMT -0500)
New Castle County

Weather History for KILG - October, 2012

Change the Weather History Date:

Thursday, October 11, 2012

  Actual Average Record
Temperature  
Mean Temperature 52 °F 58 °F  
Max Temperature 61 °F 68 °F 87 °F (1954)
Min Temperature 43 °F 48 °F 29 °F (1964)
Degree Days  
Heating Degree Days 13 8  
Month to date heating degree days 69 70  
Since 1 July heating degree days 110 122  
Cooling Degree Days 0 1  
Month to date cooling degree days 24 12  
Year to date cooling degree days 1385 1139  
Growing Degree Days 2 (Base 50)    
Moisture  
Dew Point 35 °F    
Average Humidity 54    
Maximum Humidity 71    
Minimum Humidity 36    
Precipitation  
Precipitation 0.00 in 0.12 in 1.91 in (2002)
Month to date precipitation 0.45 1.34  
Year to date precipitation 25.61 34.42  
Snow  
Snow 0.00 in 0.00 in 0.00 in (1894)
Month to date snowfall 0.0 0.0  
Since 1 July snowfall 0.0 0.0  
Since 1 September snowfall 0.0 0.0  
Snow Depth 0.00 in    
Sea Level Pressure  
Sea Level Pressure 30.20 in    
Wind  
Wind Speed 8 mph (West)    
Max Wind Speed 16 mph    
Max Gust Speed 20 mph    
Visibility 10 miles    
Events      
T = Trace of Precipitation, MM = Missing Value Source: NWS Daily Summary

Daily Weather History Graph

Daily Weather History Graph

Search for Another Location

Airport or City:

Trip Planner

Search our weather history database for the weather conditions in past years. The results will help you decide how hot, cold, wet, or windy it might be!

Date:

Astronomy

Oct. 11, 2012 Rise Set
Actual Time 7:08 AM EDT 6:28 PM EDT
Civil Twilight 6:41 AM EDT 6:55 PM EDT
Nautical Twilight 6:10 AM EDT 7:26 PM EDT
Astronomical Twilight 5:39 AM EDT 7:57 PM EDT
Moon 2:45 AM EDT (10/11) 4:03 PM EDT (10/11)
Length of Visible Light 12h 13m
Length of Day
11h 19m
Waning Crescent, 18% of the Moon is Illuminated
Oct 11
Waning Crescent
Oct 15
New
Oct 21
First Quarter
Oct 29
Full
Nov 6
Last Quarter

Hourly Weather History & Observations

Time (EDT) Temp. Windchill Dew Point Humidity Pressure Visibility Wind Dir Wind Speed Gust Speed Precip Events Conditions
12:51 AM 48.9 °F - 39.0 °F 69% 30.07 in 10.0 mi West 5.8 mph - N/A   Clear
1:51 AM 50.0 °F - 37.9 °F 63% 30.09 in 10.0 mi WNW 9.2 mph - N/A   Clear
2:51 AM 50.0 °F - 36.0 °F 59% 30.10 in 10.0 mi WNW 13.8 mph - N/A   Clear
3:51 AM 48.9 °F - 35.1 °F 59% 30.12 in 10.0 mi NW 12.7 mph - N/A   Clear
4:51 AM 46.9 °F - 35.1 °F 63% 30.15 in 10.0 mi NW 9.2 mph - N/A   Clear
5:51 AM 43.0 °F 38.8 °F 33.1 °F 68% 30.18 in 10.0 mi NW 6.9 mph - N/A   Clear
6:51 AM 44.1 °F 40.8 °F 34.0 °F 68% 30.22 in 10.0 mi West 5.8 mph - N/A   Clear
7:51 AM 46.0 °F 42.5 °F 35.1 °F 66% 30.24 in 10.0 mi West 6.9 mph - N/A   Clear
8:51 AM 50.0 °F - 35.1 °F 57% 30.26 in 10.0 mi NW 8.1 mph - N/A   Clear
9:51 AM 52.0 °F - 34.0 °F 50% 30.27 in 10.0 mi NW 10.4 mph - N/A   Clear
10:51 AM 55.0 °F - 33.1 °F 43% 30.27 in 10.0 mi NNW 10.4 mph - N/A   Clear
11:51 AM 55.9 °F - 33.1 °F 42% 30.26 in 10.0 mi NW 11.5 mph - N/A   Clear
12:51 PM 57.9 °F - 34.0 °F 41% 30.25 in 10.0 mi WNW 8.1 mph 16.1 mph N/A   Clear
1:51 PM 59.0 °F - 34.0 °F 39% 30.23 in 10.0 mi West 9.2 mph - N/A   Clear
2:51 PM 59.0 °F - 34.0 °F 39% 30.22 in 10.0 mi WSW 10.4 mph - N/A   Clear
3:51 PM 60.8 °F - 33.8 °F 36% 30.21 in 10.0 mi West 6.9 mph - N/A   Clear
4:51 PM 60.1 °F - 33.1 °F 36% 30.20 in 10.0 mi WSW 6.9 mph - N/A   Clear
5:51 PM 57.2 °F - 35.6 °F 44% 30.20 in 10.0 mi SSW 9.2 mph - N/A   Clear
6:51 PM 55.0 °F - 36.0 °F 49% 30.21 in 10.0 mi SW 4.6 mph - N/A   Clear
7:51 PM 52.0 °F - 36.0 °F 54% 30.20 in 10.0 mi SSW 4.6 mph - N/A   Clear
8:51 PM 51.8 °F - 37.4 °F 58% 30.21 in 10.0 mi SW 3.5 mph - N/A   Clear
9:51 PM 50.0 °F - 37.4 °F 62% 30.22 in 10.0 mi WSW 3.5 mph - N/A   Clear
10:51 PM 48.9 °F - 37.9 °F 66% 30.21 in 10.0 mi WSW 3.5 mph - N/A   Clear
11:51 PM 48.2 °F - 37.4 °F 66% 30.18 in 10.0 mi SSW 6.9 mph - N/A   Clear